Location: *
(51.1248°S, 108.4023°W)
Time: 20:13:51
(UTC+00:00)

deb r/b Ablestar - Visible Passes

Search period start: 16 January 2022 00:00
Search period end: 26 January 2022 00:00
Orbit: 947 x 1141 km, 67.1° (Epoch: 15 January)

Date Brightness Start Highest point End Pass type
(mag) Time Alt. Az. Time Alt. Az. Time Alt. Az.
16 Jan ? 05:01:26 14° NNE 05:05:54 28° ENE 05:11:39 10° SE visible
16 Jan ? 06:47:34 10° NW 06:54:20 78° SW 07:01:31 10° SE visible
16 Jan ? 08:38:33 10° W 08:44:35 31° SSW 08:50:51 10° SE visible
16 Jan ? 10:30:42 10° SW 10:36:05 22° S 10:41:35 10° SE visible
17 Jan ? 04:01:32 10° NE 04:04:31 13° E 04:07:33 10° ESE visible
17 Jan ? 05:45:51 11° NNW 05:52:07 61° ENE 05:59:06 10° SE visible
17 Jan ? 07:35:05 10° WNW 07:41:35 44° SW 07:48:24 10° SE visible
17 Jan ? 09:27:08 10° WSW 09:32:38 24° S 09:38:17 10° SE visible
18 Jan ? 04:44:29 10° N 04:50:17 32° ENE 04:56:22 10° SE visible
18 Jan ? 06:32:09 10° NW 06:38:54 70° SW 06:46:04 10° SE visible
18 Jan ? 08:23:23 10° W 08:29:18 29° SSW 08:35:27 10° SE visible
18 Jan ? 10:15:27 10° SW 10:20:53 22° S 10:26:25 10° SE visible
19 Jan ? 05:29:56 10° NNW 05:36:37 70° ENE 05:43:41 10° SE visible
19 Jan ? 07:19:49 10° WNW 07:26:14 40° SW 07:32:58 10° SE visible
19 Jan ? 09:11:57 10° WSW 09:17:25 23° S 09:23:00 10° SE visible
20 Jan ? 04:28:39 10° N 04:34:42 37° ENE 04:41:03 10° SE visible
20 Jan ? 06:16:45 10° NW 06:23:29 63° SW 06:30:37 10° SE visible
20 Jan ? 08:08:12 10° WSW 08:14:03 27° SSW 08:20:05 10° SE visible
20 Jan ? 10:00:10 10° SW 10:05:40 23° S 10:11:15 10° ESE visible
21 Jan ? 05:14:22 10° NNW 05:21:06 78° ENE 05:28:15 10° SE visible
21 Jan ? 07:04:34 10° W 07:10:55 37° SSW 07:17:32 10° SE visible
21 Jan ? 08:56:46 10° SW 09:02:12 23° S 09:07:45 10° SE visible
21 Jan ? 10:47:42 10° SW 10:53:47 28° SSE 10:59:57 10° E visible
22 Jan ? 04:12:52 10° N 04:19:07 43° ENE 04:25:42 10° SE visible
22 Jan ? 06:01:23 10° WNW 06:08:05 57° SW 06:15:10 10° SE visible
22 Jan ? 07:53:03 10° WSW 07:58:48 26° SSW 08:04:43 10° SE visible
22 Jan ? 09:44:51 10° SW 09:50:26 23° S 09:56:07 10° ESE visible
23 Jan ? 04:58:50 10° NNW 05:05:37 87° NE 05:12:50 10° SE visible
23 Jan ? 06:49:21 10° W 06:55:36 34° SSW 07:02:07 10° SE visible
23 Jan ? 08:41:34 10° SW 08:46:59 22° S 08:52:30 10° SE visible
23 Jan ? 10:32:17 10° SW 10:38:32 30° SSE 10:44:49 10° E visible
24 Jan ? 03:57:07 10° N 04:03:33 49° ENE 04:10:20 10° SE visible
24 Jan ? 05:46:02 10° WNW 05:52:42 51° SW 05:59:43 10° SE visible
24 Jan ? 07:37:53 10° WSW 07:43:33 25° SSW 07:49:23 10° SE visible
24 Jan ? 09:29:32 10° SW 09:35:13 24° SSE 09:40:58 10° ESE visible
25 Jan ? 04:43:20 10° NW 04:50:10 84° SW 04:57:23 10° SE visible
25 Jan ? 06:34:08 10° W 06:40:18 32° SSW 06:46:42 10° SE visible
25 Jan ? 08:26:20 10° SW 08:31:45 22° S 08:37:17 10° SE visible
25 Jan ? 10:16:52 10° SW 10:23:15 32° SSE 10:29:40 10° E visible
